Time,TemperatureF,DewpointF,PressureIn,WindDirection,WindDirectionDegrees,WindSpeedMPH,WindSpeedGustMPH,Humidity,HourlyPrecipIn,Conditions,Clouds,dailyrainin,SoftwareType,DateUTC
2013-03-23 00:18:00,31.6,20.1,29.98,North,0,0.0,0.0,62,0.00,,,0.00,WUHU216DAVISVP2,2013-03-23 04:18:00,
2013-03-23 00:23:00,31.6,20.1,29.98,North,0,0.0,0.0,62,0.00,,,0.00,WUHU216DAVISVP2,2013-03-23 04:23:00,
2013-03-23 00:28:00,31.5,20.0,29.98,North,0,0.0,0.0,62,0.00,,,0.00,WUHU216DAVISVP2,2013-03-23 04:28:00,
2013-03-23 00:33:00,31.5,20.0,29.98,North,0,0.0,0.0,62,0.00,,,0.00,WUHU216DAVISVP2,2013-03-23 04:33:00,
2013-03-23 00:38:00,31.3,19.8,29.98,North,0,0.0,0.0,62,0.00,,,0.00,WUHU216DAVISVP2,2013-03-23 04:38:00,
2013-03-23 00:43:00,31.3,20.6,29.98,North,0,0.0,0.0,64,0.00,,,0.00,WUHU216DAVISVP2,2013-03-23 04:43:00,
2013-03-23 00:48:00,31.3,20.5,29.98,North,0,0.0,0.0,64,0.00,,,0.00,WUHU216DAVISVP2,2013-03-23 04:48:00,
2013-03-23 00:53:00,31.2,20.8,29.98,North,0,0.0,0.0,65,0.00,,,0.00,WUHU216DAVISVP2,2013-03-23 04:53:00,
2013-03-23 00:58:00,31.2,20.8,29.98,North,0,0.0,0.0,65,0.00,,,0.00,WUHU216DAVISVP2,2013-03-23 04:58:00,
2013-03-23 01:03:00,31.0,20.2,29.98,North,0,0.0,0.0,64,0.00,,,0.00,WUHU216DAVISVP2,2013-03-23 05:03:00,
2013-03-23 01:08:00,30.9,20.2,29.98,North,0,0.0,0.0,64,0.00,,,0.00,WUHU216DAVISVP2,2013-03-23 05:08:00,
2013-03-23 01:13:00,30.7,20.0,29.98,North,0,0.0,0.0,64,0.00,,,0.00,WUHU216DAVISVP2,2013-03-23 05:13:00,
2013-03-23 01:18:00,30.7,20.0,29.98,North,0,0.0,0.0,64,0.00,,,0.00,WUHU216DAVISVP2,2013-03-23 05:18:00,
2013-03-23 01:23:00,30.6,20.3,29.98,North,0,0.0,0.0,65,0.00,,,0.00,WUHU216DAVISVP2,2013-03-23 05:23:00,
2013-03-23 01:28:00,30.6,20.3,29.98,North,0,0.0,0.0,65,0.00,,,0.00,WUHU216DAVISVP2,2013-03-23 05:28:00,
2013-03-23 01:33:00,30.6,20.7,29.99,North,0,0.0,0.0,66,0.00,,,0.00,WUHU216DAVISVP2,2013-03-23 05:33:00,
2013-03-23 01:39:00,30.6,20.3,29.99,North,0,0.0,0.0,65,0.00,,,0.00,WUHU216DAVISVP2,2013-03-23 05:39:00,
2013-03-23 01:44:00,30.7,20.7,29.99,North,0,0.0,0.0,66,0.00,,,0.00,WUHU216DAVISVP2,2013-03-23 05:44:00,
2013-03-23 01:49:00,30.7,20.4,29.99,North,0,0.0,0.0,65,0.00,,,0.00,WUHU216DAVISVP2,2013-03-23 05:49:00,
2013-03-23 01:54:00,30.9,21.3,29.99,North,0,0.0,0.0,67,0.00,,,0.00,WUHU216DAVISVP2,2013-03-23 05:54:00,
2013-03-23 01:59:00,31.0,21.0,29.99,North,0,0.0,0.0,66,0.00,,,0.00,WUHU216DAVISVP2,2013-03-23 05:59:00,
2013-03-23 02:04:00,31.0,21.0,29.99,North,0,0.0,0.0,66,0.00,,,0.00,WUHU216DAVISVP2,2013-03-23 06:04:00,
2013-03-23 02:09:00,31.3,21.3,29.99,North,0,0.0,0.0,66,0.00,,,0.00,WUHU216DAVISVP2,2013-03-23 06:09:00,
2013-03-23 02:14:00,31.5,21.5,29.99,North,0,0.0,0.0,66,0.00,,,0.00,WUHU216DAVISVP2,2013-03-23 06:14:00,
2013-03-23 02:19:00,31.6,21.6,29.98,North,0,0.0,0.0,66,0.00,,,0.00,WUHU216DAVISVP2,2013-03-23 06:19:00,
2013-03-23 02:24:00,31.8,22.2,29.98,North,0,0.0,0.0,67,0.00,,,0.00,WUHU216DAVISVP2,2013-03-23 06:24:00,
2013-03-23 02:29:00,31.9,22.3,29.98,North,0,0.0,0.0,67,0.00,,,0.00,WUHU216DAVISVP2,2013-03-23 06:29:00,
2013-03-23 02:34:00,31.9,22.2,29.97,North,0,0.0,0.0,67,0.00,,,0.00,WUHU216DAVISVP2,2013-03-23 06:34:00,
2013-03-23 02:39:00,32.1,22.4,29.97,North,0,0.0,0.0,67,0.00,,,0.00,WUHU216DAVISVP2,2013-03-23 06:39:00,
2013-03-23 02:44:00,32.1,22.4,29.97,North,0,0.0,0.0,67,0.00,,,0.00,WUHU216DAVISVP2,2013-03-23 06:44:00,
2013-03-23 02:49:00,32.1,22.4,29.97,North,0,0.0,0.0,67,0.00,,,0.00,WUHU216DAVISVP2,2013-03-23 06:49:00,
2013-03-23 02:54:00,32.1,22.4,29.97,North,0,0.0,0.0,67,0.00,,,0.00,WUHU216DAVISVP2,2013-03-23 06:54:00,
2013-03-23 02:59:00,31.9,22.3,29.97,North,0,0.0,0.0,67,0.00,,,0.00,WUHU216DAVISVP2,2013-03-23 06:59:00,
2013-03-23 03:04:00,31.9,22.3,29.97,North,0,0.0,0.0,67,0.00,,,0.00,WUHU216DAVISVP2,2013-03-23 07:04:00,
2013-03-23 03:09:00,32.1,22.4,29.97,North,0,0.0,0.0,67,0.00,,,0.00,WUHU216DAVISVP2,2013-03-23 07:09:00,
2013-03-23 03:14:00,32.4,23.1,29.97,North,0,0.0,0.0,68,0.00,,,0.00,WUHU216DAVISVP2,2013-03-23 07:14:00,
2013-03-23 03:19:00,32.7,23.4,29.97,North,0,0.0,0.0,68,0.00,,,0.00,WUHU216DAVISVP2,2013-03-23 07:19:00,
2013-03-23 03:24:00,32.9,23.6,29.97,North,0,0.0,0.0,68,0.00,,,0.00,WUHU216DAVISVP2,2013-03-23 07:24:00,
2013-03-23 03:29:00,33.1,23.8,29.97,North,0,0.0,0.0,68,0.00,,,0.00,WUHU216DAVISVP2,2013-03-23 07:29:00,
2013-03-23 03:34:00,33.4,24.0,29.96,North,0,0.0,0.0,68,0.00,,,0.00,WUHU216DAVISVP2,2013-03-23 07:34:00,
2013-03-23 03:39:00,33.5,23.8,29.96,North,0,0.0,0.0,67,0.00,,,0.00,WUHU216DAVISVP2,2013-03-23 07:39:00,
2013-03-23 03:44:00,33.7,24.0,29.96,North,0,0.0,0.0,67,0.00,,,0.00,WUHU216DAVISVP2,2013-03-23 07:44:00,
2013-03-23 03:49:00,33.8,24.0,29.97,North,0,0.0,0.0,67,0.00,,,0.00,WUHU216DAVISVP2,2013-03-23 07:49:00,
2013-03-23 03:54:00,34.0,24.3,29.97,North,0,0.0,0.0,67,0.00,,,0.00,WUHU216DAVISVP2,2013-03-23 07:54:00,
2013-03-23 03:59:00,34.1,24.4,29.97,North,0,0.0,0.0,67,0.00,,,0.00,WUHU216DAVISVP2,2013-03-23 07:59:00,
2013-03-23 04:04:00,34.3,24.5,29.97,North,0,0.0,0.0,67,0.00,,,0.00,WUHU216DAVISVP2,2013-03-23 08:04:00,
2013-03-23 04:09:00,34.4,24.6,29.97,North,0,0.0,0.0,67,0.00,,,0.00,WUHU216DAVISVP2,2013-03-23 08:09:00,
2013-03-23 04:14:00,34.6,24.8,29.96,North,0,0.0,0.0,67,0.00,,,0.00,WUHU216DAVISVP2,2013-03-23 08:14:00,
2013-03-23 04:19:00,34.7,24.9,29.96,North,0,0.0,0.0,67,0.00,,,0.00,WUHU216DAVISVP2,2013-03-23 08:19:00,
2013-03-23 04:24:00,34.7,24.9,29.96,North,0,0.0,0.0,67,0.00,,,0.00,WUHU216DAVISVP2,2013-03-23 08:24:00,
2013-03-23 04:29:00,34.9,25.1,29.96,North,0,0.0,0.0,67,0.00,,,0.00,WUHU216DAVISVP2,2013-03-23 08:29:00,
2013-03-23 04:34:00,34.9,25.0,29.96,North,0,0.0,0.0,67,0.00,,,0.00,WUHU216DAVISVP2,2013-03-23 08:34:00,
2013-03-23 04:39:00,35.0,25.2,29.96,North,0,0.0,0.0,67,0.00,,,0.00,WUHU216DAVISVP2,2013-03-23 08:39:00,
2013-03-23 04:44:00,35.0,25.2,29.96,North,0,0.0,0.0,67,0.00,,,0.00,WUHU216DAVISVP2,2013-03-23 08:44:00,
2013-03-23 04:50:00,35.2,25.4,29.96,North,0,0.0,0.0,67,0.00,,,0.00,WUHU216DAVISVP2,2013-03-23 08:50:00,
2013-03-23 04:55:00,35.2,25.4,29.96,North,0,0.0,0.0,67,0.00,,,0.00,WUHU216DAVISVP2,2013-03-23 08:55:00,
2013-03-23 04:59:00,35.3,25.5,29.96,North,0,0.0,0.0,67,0.00,,,0.00,WUHU216DAVISVP2,2013-03-23 08:59:00,
2013-03-23 05:05:00,35.3,25.9,29.96,North,0,0.0,0.0,68,0.00,,,0.00,WUHU216DAVISVP2,2013-03-23 09:05:00,
2013-03-23 05:10:00,35.5,26.1,29.96,North,0,0.0,0.0,68,0.00,,,0.00,WUHU216DAVISVP2,2013-03-23 09:10:00,
2013-03-23 05:15:00,35.5,26.1,29.97,North,0,0.0,0.0,68,0.00,,,0.00,WUHU216DAVISVP2,2013-03-23 09:15:00,
2013-03-23 05:20:00,35.6,26.2,29.97,North,0,0.0,0.0,68,0.00,,,0.00,WUHU216DAVISVP2,2013-03-23 09:20:00,
2013-03-23 05:25:00,35.6,26.2,29.97,North,0,0.0,0.0,68,0.00,,,0.00,WUHU216DAVISVP2,2013-03-23 09:25:00,
2013-03-23 05:30:00,35.6,26.1,29.96,North,0,0.0,0.0,68,0.00,,,0.00,WUHU216DAVISVP2,2013-03-23 09:30:00,
2013-03-23 05:34:00,35.6,26.2,29.96,North,0,0.0,0.0,68,0.00,,,0.00,WUHU216DAVISVP2,2013-03-23 09:34:00,
2013-03-23 05:39:00,35.8,26.7,29.96,North,0,0.0,0.0,69,0.00,,,0.00,WUHU216DAVISVP2,2013-03-23 09:39:00,
2013-03-23 05:44:00,35.8,26.3,29.97,North,0,0.0,0.0,68,0.00,,,0.00,WUHU216DAVISVP2,2013-03-23 09:44:00,
2013-03-23 05:49:00,35.8,26.6,29.97,North,0,0.0,0.0,69,0.00,,,0.00,WUHU216DAVISVP2,2013-03-23 09:49:00,
2013-03-23 05:54:00,35.9,26.8,29.97,North,0,0.0,0.0,69,0.00,,,0.00,WUHU216DAVISVP2,2013-03-23 09:54:00,
2013-03-23 05:59:00,35.9,26.8,29.97,North,0,0.0,0.0,69,0.00,,,0.00,WUHU216DAVISVP2,2013-03-23 09:59:00,
2013-03-23 06:04:00,35.9,26.8,29.97,North,0,0.0,0.0,69,0.00,,,0.00,WUHU216DAVISVP2,2013-03-23 10:04:00,
2013-03-23 06:09:00,35.9,26.8,29.97,North,0,0.0,0.0,69,0.00,,,0.00,WUHU216DAVISVP2,2013-03-23 10:09:00,
2013-03-23 06:14:00,35.9,27.1,29.97,North,0,0.0,0.0,70,0.00,,,0.00,WUHU216DAVISVP2,2013-03-23 10:14:00,
2013-03-23 06:19:00,35.9,27.1,29.97,North,0,0.0,0.0,70,0.00,,,0.00,WUHU216DAVISVP2,2013-03-23 10:19:00,
2013-03-23 06:24:00,36.0,27.2,29.97,North,0,0.0,0.0,70,0.00,,,0.00,WUHU216DAVISVP2,2013-03-23 10:24:00,
2013-03-23 06:29:00,36.0,27.2,29.99,North,0,0.0,0.0,70,0.00,,,0.00,WUHU216DAVISVP2,2013-03-23 10:29:00,
2013-03-23 06:34:00,36.2,27.4,29.99,North,0,0.0,0.0,70,0.00,,,0.00,WUHU216DAVISVP2,2013-03-23 10:34:00,
2013-03-23 06:39:00,36.2,27.4,29.99,North,0,0.0,0.0,70,0.00,,,0.00,WUHU216DAVISVP2,2013-03-23 10:39:00,
2013-03-23 06:44:00,36.3,27.4,30.00,North,0,0.0,0.0,70,0.00,,,0.00,WUHU216DAVISVP2,2013-03-23 10:44:00,
2013-03-23 06:49:00,36.3,27.5,30.00,North,0,0.0,0.0,70,0.00,,,0.00,WUHU216DAVISVP2,2013-03-23 10:49:00,
2013-03-23 06:54:00,36.3,27.5,30.00,North,0,0.0,0.0,70,0.00,,,0.00,WUHU216DAVISVP2,2013-03-23 10:54:00,
2013-03-23 06:59:00,36.3,27.5,30.00,North,0,0.0,0.0,70,0.00,,,0.00,WUHU216DAVISVP2,2013-03-23 10:59:00,
2013-03-23 07:04:00,36.3,27.4,30.00,North,0,0.0,0.0,70,0.00,,,0.00,WUHU216DAVISVP2,2013-03-23 11:04:00,
2013-03-23 07:09:00,36.2,27.7,30.00,North,0,0.0,0.0,71,0.00,,,0.00,WUHU216DAVISVP2,2013-03-23 11:09:00,
2013-03-23 07:14:00,36.2,27.7,30.00,North,0,0.0,0.0,71,0.00,,,0.00,WUHU216DAVISVP2,2013-03-23 11:14:00,
2013-03-23 07:19:00,36.0,27.2,30.00,North,0,0.0,0.0,70,0.00,,,0.00,WUHU216DAVISVP2,2013-03-23 11:19:00,
2013-03-23 07:24:00,35.9,27.1,30.00,North,0,0.0,0.0,70,0.00,,,0.00,WUHU216DAVISVP2,2013-03-23 11:24:00,
2013-03-23 07:29:00,35.8,27.4,30.01,North,0,0.0,0.0,71,0.00,,,0.00,WUHU216DAVISVP2,2013-03-23 11:29:00,
2013-03-23 07:34:00,35.6,27.2,30.01,North,0,0.0,0.0,71,0.00,,,0.00,WUHU216DAVISVP2,2013-03-23 11:34:00,
2013-03-23 07:39:00,35.5,27.4,30.01,North,0,0.0,0.0,72,0.00,,,0.00,WUHU216DAVISVP2,2013-03-23 11:39:00,
2013-03-23 07:44:00,35.3,27.2,30.01,North,0,0.0,0.0,72,0.00,,,0.00,WUHU216DAVISVP2,2013-03-23 11:44:00,
2013-03-23 07:49:00,35.2,27.1,30.01,North,0,0.0,0.0,72,0.00,,,0.00,WUHU216DAVISVP2,2013-03-23 11:49:00,
2013-03-23 07:54:00,35.2,27.1,30.01,North,0,0.0,0.0,72,0.00,,,0.00,WUHU216DAVISVP2,2013-03-23 11:54:00,
2013-03-23 07:59:00,35.3,27.9,30.01,North,0,0.0,0.0,74,0.00,,,0.00,WUHU216DAVISVP2,2013-03-23 11:59:00,
2013-03-23 08:04:00,35.6,28.2,30.01,North,0,0.0,0.0,74,0.00,,,0.00,WUHU216DAVISVP2,2013-03-23 12:04:00,
2013-03-23 08:09:00,35.9,28.5,30.01,North,0,0.0,0.0,74,0.00,,,0.00,WUHU216DAVISVP2,2013-03-23 12:09:00,
2013-03-23 08:15:00,35.9,27.8,30.01,North,0,0.0,0.0,72,0.00,,,0.00,WUHU216DAVISVP2,2013-03-23 12:15:00,
2013-03-23 08:20:00,36.2,27.8,30.01,North,0,0.0,0.0,71,0.00,,,0.00,WUHU216DAVISVP2,2013-03-23 12:20:00,
2013-03-23 08:25:00,36.3,27.9,30.01,North,0,0.0,0.0,71,0.00,,,0.00,WUHU216DAVISVP2,2013-03-23 12:25:00,
2013-03-23 08:30:00,36.6,27.5,30.02,North,0,0.0,0.0,69,0.00,,,0.00,WUHU216DAVISVP2,2013-03-23 12:30:00,
2013-03-23 08:35:00,37.0,27.5,30.02,North,0,0.0,0.0,68,0.00,,,0.00,WUHU216DAVISVP2,2013-03-23 12:35:00,
2013-03-23 08:40:00,37.5,27.6,30.02,North,0,0.0,0.0,67,0.00,,,0.00,WUHU216DAVISVP2,2013-03-23 12:40:00,
2013-03-23 08:45:00,37.9,28.0,30.02,North,0,0.0,0.0,67,0.00,,,0.00,WUHU216DAVISVP2,2013-03-23 12:45:00,
2013-03-23 08:50:00,38.3,27.6,30.02,North,0,0.0,1.0,65,0.00,,,0.00,WUHU216DAVISVP2,2013-03-23 12:50:00,
2013-03-23 08:55:00,38.3,27.6,30.02,North,0,0.0,1.0,65,0.00,,,0.00,WUHU216DAVISVP2,2013-03-23 12:55:00,
2013-03-23 09:00:00,39.1,27.6,30.02,North,0,0.0,0.0,63,0.00,,,0.00,WUHU216DAVISVP2,2013-03-23 13:00:00,
2013-03-23 09:05:00,39.5,28.0,30.02,North,0,0.0,1.0,63,0.00,,,0.00,WUHU216DAVISVP2,2013-03-23 13:05:00,
2013-03-23 09:10:00,39.9,28.0,30.02,North,0,0.0,1.0,62,0.00,,,0.00,WUHU216DAVISVP2,2013-03-23 13:10:00,
2013-03-23 09:15:00,40.5,28.2,30.03,North,0,0.0,0.0,61,0.00,,,0.00,WUHU216DAVISVP2,2013-03-23 13:15:00,
2013-03-23 09:20:00,41.1,27.9,30.03,North,0,0.0,0.0,59,0.00,,,0.00,WUHU216DAVISVP2,2013-03-23 13:20:00,
2013-03-23 09:25:00,41.3,27.2,30.03,North,0,0.0,0.0,57,0.00,,,0.00,WUHU216DAVISVP2,2013-03-23 13:25:00,
2013-03-23 09:30:00,41.8,27.7,30.02,North,0,0.0,0.0,57,0.00,,,0.00,WUHU216DAVISVP2,2013-03-23 13:30:00,
2013-03-23 09:35:00,42.3,27.3,30.02,North,0,0.0,1.0,55,0.00,,,0.00,WUHU216DAVISVP2,2013-03-23 13:35:00,
2013-03-23 09:40:00,42.8,27.8,30.02,North,0,0.0,2.0,55,0.00,,,0.00,WUHU216DAVISVP2,2013-03-23 13:40:00,
2013-03-23 09:45:00,43.2,27.7,30.02,North,0,0.0,2.0,54,0.00,,,0.00,WUHU216DAVISVP2,2013-03-23 13:45:00,
2013-03-23 09:50:00,43.9,28.3,30.02,NNE,16,0.0,2.0,54,0.00,,,0.00,WUHU216DAVISVP2,2013-03-23 13:50:00,
2013-03-23 09:55:00,44.3,27.8,30.02,North,7,0.0,4.0,52,0.00,,,0.00,WUHU216DAVISVP2,2013-03-23 13:55:00,
2013-03-23 10:00:00,44.6,27.1,30.02,North,6,4.0,4.0,50,0.00,,,0.00,WUHU216DAVISVP2,2013-03-23 14:00:00,
2013-03-23 10:05:00,44.9,26.3,30.02,North,1,0.0,4.0,48,0.00,,,0.00,WUHU216DAVISVP2,2013-03-23 14:05:00,
2013-03-23 10:10:00,45.2,27.1,30.02,North,1,0.0,4.0,49,0.00,,,0.00,WUHU216DAVISVP2,2013-03-23 14:10:00,
2013-03-23 10:15:00,45.4,26.3,30.02,North,1,0.0,4.0,47,0.00,,,0.00,WUHU216DAVISVP2,2013-03-23 14:15:00,
2013-03-23 10:20:00,45.4,26.3,30.02,NE,56,0.0,4.0,47,0.00,,,0.00,WUHU216DAVISVP2,2013-03-23 14:20:00,
2013-03-23 10:25:00,45.4,25.2,30.02,NE,54,0.0,4.0,45,0.00,,,0.00,WUHU216DAVISVP2,2013-03-23 14:25:00,
2013-03-23 10:30:00,45.4,25.2,30.03,North,11,2.0,4.0,45,0.00,,,0.00,WUHU216DAVISVP2,2013-03-23 14:30:00,
2013-03-23 10:35:00,45.4,24.6,30.03,North,6,0.0,4.0,44,0.00,,,0.00,WUHU216DAVISVP2,2013-03-23 14:35:00,
2013-03-23 10:40:00,45.5,24.7,30.03,North,0,0.0,4.0,44,0.00,,,0.00,WUHU216DAVISVP2,2013-03-23 14:40:00,
2013-03-23 10:45:00,45.5,24.7,30.03,North,0,1.0,4.0,44,0.00,,,0.00,WUHU216DAVISVP2,2013-03-23 14:45:00,
2013-03-23 10:50:00,45.5,24.1,30.03,North,0,0.0,4.0,43,0.00,,,0.00,WUHU216DAVISVP2,2013-03-23 14:50:00,
2013-03-23 10:55:00,45.7,24.3,30.03,North,0,0.0,2.0,43,0.00,,,0.00,WUHU216DAVISVP2,2013-03-23 14:55:00,
2013-03-23 11:00:00,45.7,24.3,30.03,North,0,0.0,0.0,43,0.00,,,0.00,WUHU216DAVISVP2,2013-03-23 15:00:00,
2013-03-23 11:05:00,45.8,24.4,30.03,North,0,0.0,0.0,43,0.00,,,0.00,WUHU216DAVISVP2,2013-03-23 15:05:00,
2013-03-23 11:10:00,45.7,23.7,30.03,ENE,68,0.0,4.0,42,0.00,,,0.00,WUHU216DAVISVP2,2013-03-23 15:10:00,
2013-03-23 11:15:00,45.7,23.7,30.02,ENE,66,0.0,4.0,42,0.00,,,0.00,WUHU216DAVISVP2,2013-03-23 15:15:00,
2013-03-23 11:20:00,45.7,24.3,30.02,ENE,66,0.0,1.0,43,0.00,,,0.00,WUHU216DAVISVP2,2013-03-23 15:20:00,
2013-03-23 11:25:00,45.8,24.4,30.02,NW,304,0.0,2.0,43,0.00,,,0.00,WUHU216DAVISVP2,2013-03-23 15:25:00,
2013-03-23 11:30:00,46.0,24.6,30.02,NW,304,0.0,2.0,43,0.00,,,0.00,WUHU216DAVISVP2,2013-03-23 15:30:00,
2013-03-23 11:35:00,46.1,24.7,30.02,NW,304,0.0,2.0,43,0.00,,,0.00,WUHU216DAVISVP2,2013-03-23 15:35:00,
2013-03-23 11:40:00,46.2,24.8,30.02,NW,305,0.0,2.0,43,0.00,,,0.00,WUHU216DAVISVP2,2013-03-23 15:40:00,
2013-03-23 11:45:00,46.4,25.0,30.02,NW,305,0.0,2.0,43,0.00,,,0.00,WUHU216DAVISVP2,2013-03-23 15:45:00,
2013-03-23 11:50:00,46.7,25.2,30.02,NW,305,0.0,2.0,43,0.00,,,0.00,WUHU216DAVISVP2,2013-03-23 15:50:00,
2013-03-23 11:55:00,46.8,24.7,30.02,NW,305,0.0,2.0,42,0.00,,,0.00,WUHU216DAVISVP2,2013-03-23 15:55:00,
2013-03-23 12:00:00,47.0,24.9,30.02,NW,305,0.0,4.0,42,0.00,,,0.00,WUHU216DAVISVP2,2013-03-23 16:00:00,
2013-03-23 12:05:00,47.1,24.4,30.02,NW,305,0.0,4.0,41,0.00,,,0.00,WUHU216DAVISVP2,2013-03-23 16:05:00,
2013-03-23 12:10:00,47.3,23.4,30.02,NW,305,0.0,1.0,39,0.00,,,0.00,WUHU216DAVISVP2,2013-03-23 16:10:00,
2013-03-23 12:15:00,47.6,23.6,30.02,NW,305,0.0,1.0,39,0.00,,,0.00,WUHU216DAVISVP2,2013-03-23 16:15:00,
2013-03-23 12:20:00,48.3,24.3,30.02,NW,305,1.0,4.0,39,0.00,,,0.00,WUHU216DAVISVP2,2013-03-23 16:20:00,
2013-03-23 12:25:00,48.8,23.4,30.02,NW,305,0.0,4.0,37,0.00,,,0.00,WUHU216DAVISVP2,2013-03-23 16:25:00,
2013-03-23 12:30:00,49.1,23.7,30.01,NW,305,0.0,2.0,37,0.00,,,0.00,WUHU216DAVISVP2,2013-03-23 16:30:00,
2013-03-23 12:35:00,49.1,23.1,30.01,NW,305,0.0,2.0,36,0.00,,,0.00,WUHU216DAVISVP2,2013-03-23 16:35:00,
2013-03-23 12:40:00,49.2,23.1,30.01,NW,305,0.0,2.0,36,0.00,,,0.00,WUHU216DAVISVP2,2013-03-23 16:40:00,
2013-03-23 12:45:00,49.4,23.3,30.01,NW,305,0.0,2.0,36,0.00,,,0.00,WUHU216DAVISVP2,2013-03-23 16:45:00,
2013-03-23 12:50:00,49.4,23.3,30.01,NW,305,0.0,2.0,36,0.00,,,0.00,WUHU216DAVISVP2,2013-03-23 16:50:00,
2013-03-23 12:55:00,49.5,22.7,30.01,NW,305,1.0,2.0,35,0.00,,,0.00,WUHU216DAVISVP2,2013-03-23 16:55:00,
2013-03-23 13:00:00,49.5,22.7,30.00,NW,305,0.0,2.0,35,0.00,,,0.00,WUHU216DAVISVP2,2013-03-23 17:00:00,
2013-03-23 13:05:00,49.9,23.8,30.00,NW,305,0.0,0.0,36,0.00,,,0.00,WUHU216DAVISVP2,2013-03-23 17:05:00,
2013-03-23 13:10:00,50.2,24.0,30.00,NNW,329,0.0,4.0,36,0.00,,,0.00,WUHU216DAVISVP2,2013-03-23 17:10:00,
2013-03-23 13:15:00,50.2,23.4,30.00,NNW,329,0.0,4.0,35,0.00,,,0.00,WUHU216DAVISVP2,2013-03-23 17:15:00,
2013-03-23 13:20:00,50.1,22.6,30.00,NE,48,0.0,2.0,34,0.00,,,0.00,WUHU216DAVISVP2,2013-03-23 17:20:00,
2013-03-23 13:25:00,50.1,22.6,30.00,NE,48,0.0,2.0,34,0.00,,,0.00,WUHU216DAVISVP2,2013-03-23 17:25:00,
2013-03-23 13:30:00,50.1,22.6,29.99,NE,48,0.0,2.0,34,0.00,,,0.00,WUHU216DAVISVP2,2013-03-23 17:30:00,
2013-03-23 13:35:00,50.2,22.7,29.99,NE,47,0.0,2.0,34,0.00,,,0.00,WUHU216DAVISVP2,2013-03-23 17:35:00,
2013-03-23 13:40:00,50.2,23.4,29.99,NE,45,0.0,2.0,35,0.00,,,0.00,WUHU216DAVISVP2,2013-03-23 17:40:00,
2013-03-23 13:45:00,50.4,22.1,29.99,North,0,0.0,6.0,33,0.00,,,0.00,WUHU216DAVISVP2,2013-03-23 17:45:00,
2013-03-23 13:50:00,50.5,22.2,29.99,North,0,0.0,6.0,33,0.00,,,0.00,WUHU216DAVISVP2,2013-03-23 17:50:00,
2013-03-23 13:55:00,50.5,22.2,29.99,NNW,329,1.0,6.0,33,0.00,,,0.00,WUHU216DAVISVP2,2013-03-23 17:55:00,
2013-03-23 14:00:00,50.5,22.9,29.99,NNW,328,0.0,6.0,34,0.00,,,0.00,WUHU216DAVISVP2,2013-03-23 18:00:00,
2013-03-23 14:05:00,50.5,22.9,29.99,NNW,329,0.0,2.0,34,0.00,,,0.00,WUHU216DAVISVP2,2013-03-23 18:05:00,
2013-03-23 14:10:00,50.7,22.4,29.99,West,260,0.0,7.0,33,0.00,,,0.00,WUHU216DAVISVP2,2013-03-23 18:10:00,
2013-03-23 14:15:00,50.8,22.5,29.98,WNW,291,4.0,7.0,33,0.00,,,0.00,WUHU216DAVISVP2,2013-03-23 18:15:00,
2013-03-23 14:20:00,51.3,23.6,29.98,WNW,302,2.0,7.0,34,0.00,,,0.00,WUHU216DAVISVP2,2013-03-23 18:20:00,
2013-03-23 14:25:00,51.6,23.9,29.98,North,349,2.0,4.0,34,0.00,,,0.00,WUHU216DAVISVP2,2013-03-23 18:25:00,
2013-03-23 14:30:00,51.9,23.4,29.97,NNW,328,2.0,8.0,33,0.00,,,0.00,WUHU216DAVISVP2,2013-03-23 18:30:00,
2013-03-23 14:35:00,52.0,23.5,29.97,NNW,344,1.0,8.0,33,0.00,,,0.00,WUHU216DAVISVP2,2013-03-23 18:35:00,
2013-03-23 14:40:00,52.2,24.4,29.97,WNW,301,1.0,7.0,34,0.00,,,0.00,WUHU216DAVISVP2,2013-03-23 18:40:00,
2013-03-23 14:45:00,52.9,23.6,29.97,South,181,0.0,2.0,32,0.00,,,0.00,WUHU216DAVISVP2,2013-03-23 18:45:00,
2013-03-23 14:51:00,53.1,23.8,29.97,WNW,302,0.0,4.0,32,0.00,,,0.00,WUHU216DAVISVP2,2013-03-23 18:51:00,
2013-03-23 14:56:00,53.2,23.9,29.97,NW,318,0.0,7.0,32,0.00,,,0.00,WUHU216DAVISVP2,2013-03-23 18:56:00,
2013-03-23 15:01:00,52.8,23.5,29.96,NNW,344,0.0,7.0,32,0.00,,,0.00,WUHU216DAVISVP2,2013-03-23 19:01:00,
2013-03-23 15:06:00,52.5,23.2,29.96,NNW,336,4.0,7.0,32,0.00,,,0.00,WUHU216DAVISVP2,2013-03-23 19:06:00,
2013-03-23 15:11:00,52.3,23.1,29.96,NNW,330,0.0,7.0,32,0.00,,,0.00,WUHU216DAVISVP2,2013-03-23 19:11:00,
2013-03-23 15:16:00,52.2,22.2,29.95,North,1,0.0,6.0,31,0.00,,,0.00,WUHU216DAVISVP2,2013-03-23 19:16:00,
2013-03-23 15:21:00,52.2,23.0,29.95,North,1,0.0,4.0,32,0.00,,,0.00,WUHU216DAVISVP2,2013-03-23 19:21:00,
2013-03-23 15:26:00,52.5,23.2,29.95,North,357,0.0,4.0,32,0.00,,,0.00,WUHU216DAVISVP2,2013-03-23 19:26:00,
2013-03-23 15:31:00,52.5,24.0,29.94,North,0,0.0,2.0,33,0.00,,,0.00,WUHU216DAVISVP2,2013-03-23 19:31:00,
2013-03-23 15:36:00,52.8,24.2,29.94,East,92,0.0,2.0,33,0.00,,,0.00,WUHU216DAVISVP2,2013-03-23 19:36:00,
2013-03-23 15:41:00,53.1,23.8,29.94,East,93,1.0,4.0,32,0.00,,,0.00,WUHU216DAVISVP2,2013-03-23 19:41:00,
2013-03-23 15:46:00,53.2,23.9,29.93,East,88,0.0,4.0,32,0.00,,,0.00,WUHU216DAVISVP2,2013-03-23 19:46:00,
2013-03-23 15:51:00,53.2,24.6,29.93,East,88,0.0,2.0,33,0.00,,,0.00,WUHU216DAVISVP2,2013-03-23 19:51:00,
2013-03-23 15:56:00,53.2,23.9,29.93,ESE,103,0.0,4.0,32,0.00,,,0.00,WUHU216DAVISVP2,2013-03-23 19:56:00,
2013-03-23 16:01:00,53.2,23.9,29.92,SSE,167,0.0,4.0,32,0.00,,,0.00,WUHU216DAVISVP2,2013-03-23 20:01:00,
2013-03-23 16:06:00,53.2,23.9,29.92,SSE,167,1.0,2.0,32,0.00,,,0.00,WUHU216DAVISVP2,2013-03-23 20:06:00,
2013-03-23 16:11:00,53.8,25.1,29.92,East,95,1.0,4.0,33,0.00,,,0.00,WUHU216DAVISVP2,2013-03-23 20:11:00,
2013-03-23 16:16:00,53.6,24.2,29.92,East,90,1.0,6.0,32,0.00,,,0.00,WUHU216DAVISVP2,2013-03-23 20:16:00,
2013-03-23 16:21:00,53.5,24.1,29.92,East,90,0.0,6.0,32,0.00,,,0.00,WUHU216DAVISVP2,2013-03-23 20:21:00,
2013-03-23 16:26:00,53.6,25.7,29.92,North,0,1.0,4.0,34,0.00,,,0.00,WUHU216DAVISVP2,2013-03-23 20:26:00,
2013-03-23 16:31:00,54.1,25.4,29.92,SW,219,0.0,4.0,33,0.00,,,0.00,WUHU216DAVISVP2,2013-03-23 20:31:00,
2013-03-23 16:36:00,54.2,24.7,29.92,ESE,117,0.0,2.0,32,0.00,,,0.00,WUHU216DAVISVP2,2013-03-23 20:36:00,
2013-03-23 16:41:00,54.4,26.4,29.92,ESE,117,0.0,2.0,34,0.00,,,0.00,WUHU216DAVISVP2,2013-03-23 20:41:00,
2013-03-23 16:46:00,54.8,26.7,29.91,NW,315,0.0,2.0,34,0.00,,,0.00,WUHU216DAVISVP2,2013-03-23 20:46:00,
2013-03-23 16:51:00,55.3,27.2,29.91,NW,319,4.0,4.0,34,0.00,,,0.00,WUHU216DAVISVP2,2013-03-23 20:51:00,
2013-03-23 16:56:00,55.1,26.3,29.91,NNW,330,1.0,6.0,33,0.00,,,0.00,WUHU216DAVISVP2,2013-03-23 20:56:00,
2013-03-23 17:01:00,55.0,26.2,29.91,NNW,330,1.0,6.0,33,0.00,,,0.00,WUHU216DAVISVP2,2013-03-23 21:01:00,
2013-03-23 17:06:00,54.8,26.0,29.91,NNW,330,0.0,2.0,33,0.00,,,0.00,WUHU216DAVISVP2,2013-03-23 21:06:00,
2013-03-23 17:11:00,54.8,26.7,29.91,NNW,332,1.0,2.0,34,0.00,,,0.00,WUHU216DAVISVP2,2013-03-23 21:11:00,
2013-03-23 17:16:00,54.7,26.6,29.92,NNW,329,0.0,2.0,34,0.00,,,0.00,WUHU216DAVISVP2,2013-03-23 21:16:00,
2013-03-23 17:21:00,54.5,26.5,29.92,South,171,0.0,2.0,34,0.00,,,0.00,WUHU216DAVISVP2,2013-03-23 21:21:00,
2013-03-23 17:26:00,54.5,25.7,29.92,South,171,0.0,2.0,33,0.00,,,0.00,WUHU216DAVISVP2,2013-03-23 21:26:00,
2013-03-23 17:31:00,54.4,26.4,29.91,South,171,0.0,1.0,34,0.00,,,0.00,WUHU216DAVISVP2,2013-03-23 21:31:00,
2013-03-23 17:36:00,54.4,27.1,29.91,South,171,0.0,0.0,35,0.00,,,0.00,WUHU216DAVISVP2,2013-03-23 21:36:00,
2013-03-23 17:41:00,54.5,28.5,29.91,South,171,0.0,0.0,37,0.00,,,0.00,WUHU216DAVISVP2,2013-03-23 21:41:00,
2013-03-23 17:46:00,54.8,27.4,29.89,South,171,0.0,0.0,35,0.00,,,0.00,WUHU216DAVISVP2,2013-03-23 21:46:00,
2013-03-23 17:51:00,55.0,26.9,29.89,NE,54,0.0,2.0,34,0.00,,,0.00,WUHU216DAVISVP2,2013-03-23 21:51:00,
2013-03-23 17:56:00,55.0,26.9,29.89,NE,54,0.0,2.0,34,0.00,,,0.00,WUHU216DAVISVP2,2013-03-23 21:56:00,
2013-03-23 18:01:00,54.8,26.7,29.89,NE,54,0.0,1.0,34,0.00,,,0.00,WUHU216DAVISVP2,2013-03-23 22:01:00,
2013-03-23 18:06:00,54.7,26.6,29.89,NE,54,0.0,1.0,34,0.00,,,0.00,WUHU216DAVISVP2,2013-03-23 22:06:00,
2013-03-23 18:11:00,54.8,27.4,29.89,NE,54,0.0,0.0,35,0.00,,,0.00,WUHU216DAVISVP2,2013-03-23 22:11:00,
2013-03-23 18:17:00,54.7,28.0,29.89,NE,54,0.0,0.0,36,0.00,,,0.00,WUHU216DAVISVP2,2013-03-23 22:17:00,
2013-03-23 18:22:00,54.7,28.0,29.89,NE,54,0.0,0.0,36,0.00,,,0.00,WUHU216DAVISVP2,2013-03-23 22:22:00,
2013-03-23 18:27:00,54.5,27.9,29.89,NE,54,0.0,0.0,36,0.00,,,0.00,WUHU216DAVISVP2,2013-03-23 22:27:00,
2013-03-23 18:32:00,54.5,27.9,29.89,NE,54,0.0,0.0,36,0.00,,,0.00,WUHU216DAVISVP2,2013-03-23 22:32:00,
2013-03-23 18:37:00,54.5,27.9,29.89,NE,54,0.0,0.0,36,0.00,,,0.00,WUHU216DAVISVP2,2013-03-23 22:37:00,
2013-03-23 18:42:00,54.4,28.4,29.89,NE,54,0.0,0.0,37,0.00,,,0.00,WUHU216DAVISVP2,2013-03-23 22:42:00,
2013-03-23 18:47:00,54.1,28.8,29.89,NE,54,0.0,0.0,38,0.00,,,0.00,WUHU216DAVISVP2,2013-03-23 22:47:00,
2013-03-23 18:52:00,53.9,29.9,29.89,NE,54,0.0,0.0,40,0.00,,,0.00,WUHU216DAVISVP2,2013-03-23 22:52:00,
2013-03-23 18:57:00,53.6,30.9,29.89,NE,54,0.0,0.0,42,0.00,,,0.00,WUHU216DAVISVP2,2013-03-23 22:57:00,
2013-03-23 19:02:00,53.2,30.5,29.88,NE,54,0.0,0.0,42,0.00,,,0.00,WUHU216DAVISVP2,2013-03-23 23:02:00,
2013-03-23 19:07:00,52.6,30.0,29.88,NE,54,0.0,0.0,42,0.00,,,0.00,WUHU216DAVISVP2,2013-03-23 23:07:00,
2013-03-23 19:12:00,52.2,29.6,29.88,NE,54,0.0,0.0,42,0.00,,,0.00,WUHU216DAVISVP2,2013-03-23 23:12:00,
2013-03-23 19:17:00,51.4,29.5,29.89,NE,54,0.0,0.0,43,0.00,,,0.00,WUHU216DAVISVP2,2013-03-23 23:17:00,
2013-03-23 19:22:00,50.8,29.5,29.89,NE,54,0.0,0.0,44,0.00,,,0.00,WUHU216DAVISVP2,2013-03-23 23:22:00,
2013-03-23 19:27:00,50.4,29.2,29.89,NE,54,0.0,0.0,44,0.00,,,0.00,WUHU216DAVISVP2,2013-03-23 23:27:00,
2013-03-23 19:33:00,49.2,29.7,29.89,NE,54,0.0,0.0,47,0.00,,,0.00,WUHU216DAVISVP2,2013-03-23 23:33:00,
2013-03-23 19:38:00,48.6,29.2,29.89,NE,54,0.0,0.0,47,0.00,,,0.00,WUHU216DAVISVP2,2013-03-23 23:38:00,
2013-03-23 19:43:00,48.0,29.7,29.89,NE,54,0.0,0.0,49,0.00,,,0.00,WUHU216DAVISVP2,2013-03-23 23:43:00,
2013-03-23 19:48:00,47.4,29.1,29.90,NE,54,0.0,0.0,49,0.00,,,0.00,WUHU216DAVISVP2,2013-03-23 23:48:00,
2013-03-23 19:53:00,46.8,29.1,29.90,NE,54,0.0,0.0,50,0.00,,,0.00,WUHU216DAVISVP2,2013-03-23 23:53:00,
2013-03-23 19:58:00,46.4,29.2,29.90,NE,54,0.0,0.0,51,0.00,,,0.00,WUHU216DAVISVP2,2013-03-23 23:58:00,
2013-03-23 20:03:00,46.0,28.9,29.91,NE,55,0.0,0.0,51,0.00,,,0.00,WUHU216DAVISVP2,2013-03-24 00:03:00,
2013-03-23 20:08:00,45.5,28.4,29.91,NE,54,0.0,0.0,51,0.00,,,0.00,WUHU216DAVISVP2,2013-03-24 00:08:00,
2013-03-23 20:13:00,44.9,28.3,29.91,NE,54,0.0,0.0,52,0.00,,,0.00,WUHU216DAVISVP2,2013-03-24 00:13:00,
2013-03-23 20:18:00,44.3,28.2,29.91,NE,54,0.0,0.0,53,0.00,,,0.00,WUHU216DAVISVP2,2013-03-24 00:18:00,
2013-03-23 20:23:00,43.9,28.8,29.91,NE,54,0.0,0.0,55,0.00,,,0.00,WUHU216DAVISVP2,2013-03-24 00:23:00,
2013-03-23 20:28:00,43.3,28.7,29.91,NE,54,0.0,0.0,56,0.00,,,0.00,WUHU216DAVISVP2,2013-03-24 00:28:00,
2013-03-23 20:33:00,42.9,29.2,29.92,NE,54,0.0,0.0,58,0.00,,,0.00,WUHU216DAVISVP2,2013-03-24 00:33:00,
2013-03-23 20:38:00,42.6,28.5,29.92,NE,55,0.0,0.0,57,0.00,,,0.00,WUHU216DAVISVP2,2013-03-24 00:38:00,
2013-03-23 20:43:00,42.3,28.6,29.92,NE,54,0.0,0.0,58,0.00,,,0.00,WUHU216DAVISVP2,2013-03-24 00:43:00,
2013-03-23 20:48:00,41.9,28.2,29.92,NE,54,0.0,0.0,58,0.00,,,0.00,WUHU216DAVISVP2,2013-03-24 00:48:00,
2013-03-23 20:53:00,41.6,28.0,29.92,NE,54,0.0,0.0,58,0.00,,,0.00,WUHU216DAVISVP2,2013-03-24 00:53:00,
2013-03-23 20:58:00,41.2,28.4,29.92,NE,54,0.0,0.0,60,0.00,,,0.00,WUHU216DAVISVP2,2013-03-24 00:58:00,
2013-03-23 21:03:00,40.9,28.1,29.93,NE,54,0.0,0.0,60,0.00,,,0.00,WUHU216DAVISVP2,2013-03-24 01:03:00,
2013-03-23 21:08:00,40.5,28.6,29.93,NE,54,0.0,0.0,62,0.00,,,0.00,WUHU216DAVISVP2,2013-03-24 01:08:00,
2013-03-23 21:13:00,40.2,28.3,29.93,NE,54,0.0,0.0,62,0.00,,,0.00,WUHU216DAVISVP2,2013-03-24 01:13:00,
2013-03-23 21:18:00,39.9,28.0,29.93,NE,54,0.0,0.0,62,0.00,,,0.00,WUHU216DAVISVP2,2013-03-24 01:18:00,
2013-03-23 21:23:00,39.6,27.7,29.93,NE,55,0.0,0.0,62,0.00,,,0.00,WUHU216DAVISVP2,2013-03-24 01:23:00,
2013-03-23 21:28:00,39.3,28.2,29.93,NE,54,0.0,0.0,64,0.00,,,0.00,WUHU216DAVISVP2,2013-03-24 01:28:00,
2013-03-23 21:33:00,39.2,28.1,29.94,NE,54,0.0,0.0,64,0.00,,,0.00,WUHU216DAVISVP2,2013-03-24 01:33:00,
2013-03-23 21:38:00,39.1,28.0,29.94,NE,54,0.0,0.0,64,0.00,,,0.00,WUHU216DAVISVP2,2013-03-24 01:38:00,
2013-03-23 21:43:00,38.9,28.2,29.94,NE,54,0.0,0.0,65,0.00,,,0.00,WUHU216DAVISVP2,2013-03-24 01:43:00,
2013-03-23 21:48:00,38.6,27.5,29.94,NE,55,0.0,0.0,64,0.00,,,0.00,WUHU216DAVISVP2,2013-03-24 01:48:00,
2013-03-23 21:53:00,38.5,28.2,29.94,NE,54,0.0,0.0,66,0.00,,,0.00,WUHU216DAVISVP2,2013-03-24 01:53:00,
2013-03-23 21:58:00,38.2,27.5,29.94,NE,54,0.0,0.0,65,0.00,,,0.00,WUHU216DAVISVP2,2013-03-24 01:58:00,
2013-03-23 22:03:00,38.0,27.4,29.96,NE,54,0.0,0.0,65,0.00,,,0.00,WUHU216DAVISVP2,2013-03-24 02:03:00,
2013-03-23 22:08:00,37.9,27.6,29.96,NE,54,0.0,0.0,66,0.00,,,0.00,WUHU216DAVISVP2,2013-03-24 02:08:00,
2013-03-23 22:13:00,37.8,27.9,29.96,NE,54,0.0,0.0,67,0.00,,,0.00,WUHU216DAVISVP2,2013-03-24 02:13:00,
2013-03-23 22:18:00,37.6,27.7,29.96,NE,54,0.0,0.0,67,0.00,,,0.00,WUHU216DAVISVP2,2013-03-24 02:18:00,
2013-03-23 22:23:00,37.5,28.0,29.96,NE,54,0.0,0.0,68,0.00,,,0.00,WUHU216DAVISVP2,2013-03-24 02:23:00,
2013-03-23 22:28:00,37.3,27.4,29.96,NE,55,0.0,0.0,67,0.00,,,0.00,WUHU216DAVISVP2,2013-03-24 02:28:00,
2013-03-23 22:33:00,37.2,27.7,29.96,NE,54,0.0,0.0,68,0.00,,,0.00,WUHU216DAVISVP2,2013-03-24 02:33:00,
2013-03-23 22:38:00,37.2,27.7,29.96,NE,54,0.0,0.0,68,0.00,,,0.00,WUHU216DAVISVP2,2013-03-24 02:38:00,
2013-03-23 22:43:00,37.0,27.5,29.96,NE,54,0.0,0.0,68,0.00,,,0.00,WUHU216DAVISVP2,2013-03-24 02:43:00,
2013-03-23 22:48:00,36.9,27.4,29.95,NE,54,0.0,0.0,68,0.00,,,0.00,WUHU216DAVISVP2,2013-03-24 02:48:00,
2013-03-23 22:53:00,36.9,27.4,29.95,NE,55,0.0,0.0,68,0.00,,,0.00,WUHU216DAVISVP2,2013-03-24 02:53:00,
2013-03-23 22:58:00,36.8,27.7,29.95,NE,54,0.0,0.0,69,0.00,,,0.00,WUHU216DAVISVP2,2013-03-24 02:58:00,
2013-03-23 23:03:00,36.6,27.5,29.95,NE,55,0.0,0.0,69,0.00,,,0.00,WUHU216DAVISVP2,2013-03-24 03:03:00,
2013-03-23 23:08:00,36.5,27.4,29.95,NE,54,0.0,0.0,69,0.00,,,0.00,WUHU216DAVISVP2,2013-03-24 03:08:00,
2013-03-23 23:13:00,36.5,27.7,29.95,NE,54,0.0,0.0,70,0.00,,,0.00,WUHU216DAVISVP2,2013-03-24 03:13:00,
2013-03-23 23:18:00,36.5,27.4,29.94,NE,54,0.0,0.0,69,0.00,,,0.00,WUHU216DAVISVP2,2013-03-24 03:18:00,
2013-03-23 23:23:00,36.3,27.5,29.94,NE,55,0.0,0.0,70,0.00,,,0.00,WUHU216DAVISVP2,2013-03-24 03:23:00,
2013-03-23 23:28:00,36.3,27.5,29.94,NE,55,0.0,0.0,70,0.00,,,0.00,WUHU216DAVISVP2,2013-03-24 03:28:00,
2013-03-23 23:33:00,36.2,27.4,29.91,NE,54,0.0,0.0,70,0.00,,,0.00,WUHU216DAVISVP2,2013-03-24 03:33:00,
2013-03-23 23:38:00,36.0,27.6,29.91,NE,54,0.0,0.0,71,0.00,,,0.00,WUHU216DAVISVP2,2013-03-24 03:38:00,
2013-03-23 23:43:00,36.0,27.6,29.91,NE,54,0.0,0.0,71,0.00,,,0.00,WUHU216DAVISVP2,2013-03-24 03:43:00,
2013-03-23 23:48:00,36.0,27.9,29.91,NE,54,0.0,0.0,72,0.00,,,0.00,WUHU216DAVISVP2,2013-03-24 03:48:00,
2013-03-23 23:53:00,36.0,27.6,29.91,NE,54,0.0,0.0,71,0.00,,,0.00,WUHU216DAVISVP2,2013-03-24 03:53:00,
2013-03-23 23:58:00,35.9,27.5,29.91,NE,54,0.0,0.0,71,0.00,,,0.00,WUHU216DAVISVP2,2013-03-24 03:58:00,